| time (UTC) | temp C | wind direction | speed KPH | gust KPH | rain 1hr cm | rain 24hr cm | rain mn cm | humidity % | barometer mb |
| 20260502130517 | 5 | 78 | 4.8 | 8.0 | 0.00 | 0.00 | 0.00 | 61 | 1019.0 |
| 20260502123511 | 5 | 94 | 4.8 | 6.4 | 0.00 | 0.00 | 0.00 | 58 | 1018.8 |
| 20260502123009 | 5 | 94 | 3.2 | 4.8 | 0.00 | 0.00 | 0.00 | 58 | 1018.8 |
| 20260502122509 | 5 | 94 | 4.8 | 6.4 | 0.00 | 0.00 | 0.00 | 60 | 1018.9 |
| 20260502122011 | 5 | 94 | 4.8 | 6.4 | 0.00 | 0.00 | 0.00 | 58 | 1018.8 |
| 20260502121511 | 5 | 94 | 4.8 | 6.4 | 0.00 | 0.00 | 0.00 | 57 | 1018.8 |
| 20260502121419 | 5 | 69 | 4.8 | 6.4 | 0.00 | 0.00 | 0.00 | 56 | 1018.8 |
| 20260502120511 | 5 | 69 | 4.8 | 6.4 | 0.00 | 0.00 | 0.00 | 56 | 1018.8 |
| 20260502115503 | 5 | 69 | 4.8 | 8.0 | 0.00 | 0.00 | 0.00 | 57 | 1018.8 |
| 20260502115005 | 5 | 49 | 4.8 | 8.0 | 0.00 | 0.00 | 0.00 | 58 | 1018.8 |
| 20260502114503 | 5 | 83 | 4.8 | 9.7 | 0.00 | 0.00 | 0.00 | 56 | 1018.7 |
| 20260502114010 | 5 | 86 | 4.8 | 9.7 | 0.00 | 0.00 | 0.00 | 57 | 1018.7 |
| 20260502113504 | 5 | 82 | 4.8 | 9.7 | 0.00 | 0.00 | 0.00 | 58 | 1018.7 |
| 20260502113001 | 5 | 80 | 4.8 | 9.7 | 0.00 | 0.00 | 0.00 | 58 | 1018.7 |
| 20260502112501 | 5 | 74 | 4.8 | 8.0 | 0.00 | 0.00 | 0.00 | 58 | 1018.8 |
| 20260502112002 | 5 | 74 | 4.8 | 8.0 | 0.00 | 0.00 | 0.00 | 58 | 1018.7 |
| 20260502111501 | 5 | 100 | 4.8 | 6.4 | 0.00 | 0.00 | 0.00 | 57 | 1018.8 |
| 20260502111149 | 5 | 103 | 4.8 | 8.0 | 0.00 | 0.00 | 0.00 | 59 | 1018.7 |
| 20260502111137 | 5 | 84 | 4.8 | 8.0 | 0.00 | 0.00 | 0.00 | 59 | 1018.8 |
| 20260502111039 | 5 | 86 | 4.8 | 8.0 | 0.00 | 0.00 | 0.00 | 59 | 1018.8 |
| 20260502110135 | 5 | 82 | 4.8 | 6.4 | 0.00 | 0.00 | 0.00 | 59 | 1018.8 |
| 20260502105005 | 5 | 89 | 4.8 | 8.0 | 0.00 | 0.00 | 0.00 | 59 | 1018.8 |
| 20260502104503 | 5 | 83 | 3.2 | 4.8 | 0.00 | 0.00 | 0.00 | 59 | 1018.8 |
| 20260502104003 | 6 | 83 | 4.8 | 6.4 | 0.00 | 0.00 | 0.00 | 58 | 1018.7 |
| 20260502103501 | 6 | 82 | 4.8 | 6.4 | 0.00 | 0.00 | 0.00 | 58 | 1018.8 |
| 20260502103005 | 6 | 82 | 3.2 | 6.4 | 0.00 | 0.00 | 0.00 | 58 | 1018.8 |
| 20260502102859 | 6 | 82 | 1.6 | 4.8 | 0.00 | 0.00 | 0.00 | 58 | 1018.7 |
| 20260502102002 | 6 | 82 | 1.6 | 6.4 | 0.00 | 0.00 | 0.00 | 59 | 1018.7 |
| 20260502101508 | 6 | 82 | 3.2 | 6.4 | 0.00 | 0.00 | 0.00 | 56 | 1018.6 |
| 20260502101500 | 6 | 82 | 4.8 | 6.4 | 0.00 | 0.00 | 0.00 | 56 | 1018.6 |
| 20260502100924 | 6 | 82 | 4.8 | 8.0 | 0.00 | 0.00 | 0.00 | 55 | 1018.6 |
| 20260502091505 | 7 | 71 | 0.0 | 6.4 | 0.00 | 0.00 | 0.00 | 54 | 1018.5 |
| 20260502091005 | 7 | 71 | 1.6 | 4.8 | 0.00 | 0.00 | 0.00 | 54 | 1018.5 |
| 20260502090508 | 7 | 71 | 4.8 | 6.4 | 0.00 | 0.00 | 0.00 | 53 | 1018.5 |
| 20260502071436 | 8 | 92 | 3.2 | 6.4 | 0.00 | 0.00 | 0.00 | 51 | 1018.7 |
| 20260502070940 | 8 | 92 | 4.8 | 8.0 | 0.00 | 0.00 | 0.00 | 50 | 1018.7 |
| 20260502070932 | 8 | 92 | 4.8 | 8.0 | 0.00 | 0.00 | 0.00 | 50 | 1018.8 |
| 20260502070844 | 8 | 103 | 4.8 | 6.4 | 0.00 | 0.00 | 0.00 | 50 | 1018.8 |
| 20260502065442 | 8 | 135 | 3.2 | 8.0 | 0.00 | 0.00 | 0.00 | 49 | 1018.7 |
| 20260502065433 | 8 | 103 | 4.8 | 6.4 | 0.00 | 0.00 | 0.00 | 50 | 1018.8 |
| 20260502065428 | 8 | 109 | 4.8 | 6.4 | 0.00 | 0.00 | 0.00 | 50 | 1018.8 |
| 20260502064450 | 8 | 135 | 3.2 | 8.0 | 0.00 | 0.00 | 0.00 | 49 | 1018.7 |
| 20260502063816 | 8 | 169 | 1.6 | 6.4 | 0.00 | 0.00 | 0.00 | 51 | 1018.8 |
| 20260502062933 | 9 | 194 | 3.2 | 6.4 | 0.00 | 0.00 | 0.00 | 50 | 1018.8 |
| 20260502062515 | 9 | 84 | 4.8 | 11.3 | 0.00 | 0.00 | 0.00 | 49 | 1018.7 |
| 20260502062451 | 9 | 146 | 3.2 | 11.3 | 0.00 | 0.00 | 0.00 | 50 | 1018.8 |
| 20260502061430 | 9 | 96 | 6.4 | 11.3 | 0.00 | 0.00 | 0.00 | 48 | 1018.7 |
| 20260502060928 | 10 | 83 | 4.8 | 8.0 | 0.00 | 0.00 | 0.00 | 47 | 1018.6 |
| 20260502060432 | 10 | 92 | 4.8 | 11.3 | 0.00 | 0.00 | 0.00 | 46 | 1018.6 |
| 20260502055933 | 10 | 98 | 6.4 | 11.3 | 0.00 | 0.00 | 0.00 | 46 | 1018.6 |
| 20260502055429 | 10 | 111 | 4.8 | 9.7 | 0.00 | 0.00 | 0.00 | 46 | 1018.6 |
| 20260502054931 | 10 | 246 | 3.2 | 4.8 | 0.00 | 0.00 | 0.00 | 45 | 1018.6 |
| 20260502054437 | 10 | 246 | 1.6 | 4.8 | 0.00 | 0.00 | 0.00 | 45 | 1018.5 |
| 20260502053935 | 10 | 246 | 1.6 | 4.8 | 0.00 | 0.00 | 0.00 | 45 | 1018.5 |
| 20260502053436 | 10 | 246 | 1.6 | 4.8 | 0.00 | 0.00 | 0.00 | 45 | 1018.6 |
| 20260502052933 | 10 | 246 | 1.6 | 6.4 | 0.00 | 0.00 | 0.00 | 45 | 1018.6 |
| 20260502052433 | 10 | 246 | 1.6 | 6.4 | 0.00 | 0.00 | 0.00 | 45 | 1018.5 |
| 20260502051937 | 10 | 146 | 3.2 | 9.7 | 0.00 | 0.00 | 0.00 | 46 | 1018.5 |
| 20260502051433 | 10 | 38 | 6.4 | 11.3 | 0.00 | 0.00 | 0.00 | 45 | 1018.4 |
| 20260502050933 | 10 | 96 | 6.4 | 11.3 | 0.00 | 0.00 | 0.00 | 44 | 1018.4 |
| 20260502050437 | 10 | 47 | 4.8 | 6.4 | 0.00 | 0.00 | 0.00 | 45 | 1018.5 |
| 20260502045926 | 10 | 84 | 4.8 | 6.4 | 0.00 | 0.00 | 0.00 | 44 | 1018.4 |
| 20260502045555 | 11 | 71 | 3.2 | 9.7 | 0.00 | 0.00 | 0.00 | 43 | 1018.5 |
| 20260502045510 | 11 | 84 | 6.4 | 9.7 | 0.00 | 0.00 | 0.00 | 43 | 1018.4 |
| 20260502045049 | 11 | 77 | 4.8 | 11.3 | 0.00 | 0.00 | 0.00 | 42 | 1018.4 |
| 20260502045005 | 11 | 67 | 4.8 | 9.7 | 0.00 | 0.00 | 0.00 | 44 | 1018.5 |
| 20260502044532 | 11 | 80 | 3.2 | 9.7 | 0.00 | 0.00 | 0.00 | 43 | 1018.5 |
| 20260502042909 | 11 | 88 | 6.4 | 11.3 | 0.00 | 0.00 | 0.00 | 42 | 1018.4 |
| 20260502042409 | 11 | 71 | 4.8 | 9.7 | 0.00 | 0.00 | 0.00 | 42 | 1018.4 |
| 20260502041911 | 11 | 91 | 4.8 | 6.4 | 0.00 | 0.00 | 0.00 | 41 | 1018.4 |
| 20260502041835 | 11 | 90 | 4.8 | 6.4 | 0.00 | 0.00 | 0.00 | 41 | 1018.2 |
| 20260502040905 | 11 | 86 | 3.2 | 6.4 | 0.00 | 0.00 | 0.00 | 39 | 1018.2 |
| 20260502040405 | 11 | 66 | 3.2 | 4.8 | 0.00 | 0.00 | 0.00 | 37 | 1018.1 |
| 20260502040305 | 11 | 66 | 3.2 | 4.8 | 0.00 | 0.00 | 0.00 | 36 | 1018.2 |
| 20260502035409 | 11 | 66 | 3.2 | 6.4 | 0.00 | 0.00 | 0.00 | 36 | 1018.1 |
| 20260502034905 | 12 | 66 | 4.8 | 6.4 | 0.00 | 0.00 | 0.00 | 36 | 1018.1 |
| 20260502034401 | 12 | 57 | 4.8 | 8.0 | 0.00 | 0.00 | 0.00 | 34 | 1018.0 |
| 20260502033905 | 12 | 44 | 4.8 | 9.7 | 0.00 | 0.00 | 0.00 | 34 | 1018.0 |
| 20260502033405 | 12 | 46 | 3.2 | 9.7 | 0.00 | 0.00 | 0.00 | 34 | 1017.9 |
| 20260502032901 | 12 | 45 | 3.2 | 11.3 | 0.00 | 0.00 | 0.00 | 33 | 1017.8 |
| 20260502032405 | 12 | 43 | 4.8 | 11.3 | 0.00 | 0.00 | 0.00 | 33 | 1017.8 |
| 20260502031903 | 12 | 69 | 4.8 | 6.4 | 0.00 | 0.00 | 0.00 | 33 | 1017.8 |
| 20260502031356 | 12 | 38 | 4.8 | 9.7 | 0.00 | 0.00 | 0.00 | 32 | 1017.7 |
| 20260502030857 | 13 | 46 | 4.8 | 9.7 | 0.00 | 0.00 | 0.00 | 33 | 1017.5 |
| 20260502030356 | 13 | 53 | 4.8 | 9.7 | 0.00 | 0.00 | 0.00 | 33 | 1017.5 |
| 20260502030310 | 13 | 49 | 4.8 | 11.3 | 0.00 | 0.00 | 0.00 | 34 | 1017.3 |
| 20260502025357 | 13 | 70 | 4.8 | 11.3 | 0.00 | 0.00 | 0.00 | 32 | 1017.3 |
| 20260502024901 | 13 | 69 | 4.8 | 8.0 | 0.00 | 0.00 | 0.00 | 32 | 1017.4 |
| 20260502024401 | 13 | 69 | 3.2 | 4.8 | 0.00 | 0.00 | 0.00 | 32 | 1017.3 |
| 20260502023853 | 14 | 55 | 1.6 | 4.8 | 0.00 | 0.00 | 0.00 | 33 | 1017.2 |
| 20260502023355 | 14 | 15 | 1.6 | 4.8 | 0.00 | 0.00 | 0.00 | 33 | 1017.2 |
| 20260502022856 | 14 | 36 | 1.6 | 4.8 | 0.00 | 0.00 | 0.00 | 32 | 1017.1 |
| 20260502022353 | 15 | 9 | 1.6 | 4.8 | 0.00 | 0.00 | 0.00 | 32 | 1017.1 |
| 20260502021857 | 15 | 9 | 1.6 | 4.8 | 0.00 | 0.00 | 0.00 | 31 | 1017.1 |
| 20260502021354 | 15 | 9 | 1.6 | 4.8 | 0.00 | 0.00 | 0.00 | 33 | 1017.0 |
| 20260502020853 | 15 | 9 | 1.6 | 6.4 | 0.00 | 0.00 | 0.00 | 33 | 1017.0 |
| 20260502020803 | 15 | 9 | 3.2 | 6.4 | 0.00 | 0.00 | 0.00 | 32 | 1017.0 |
| 20260502015913 | 16 | 355 | 3.2 | 6.4 | 0.00 | 0.00 | 0.00 | 33 | 1016.9 |
| 20260502015902 | 15 | 340 | 3.2 | 6.4 | 0.00 | 0.00 | 0.00 | 33 | 1016.9 |
| 20260502014857 | 16 | 336 | 3.2 | 6.4 | 0.00 | 0.00 | 0.00 | 32 | 1016.7 |
| 20260502014352 | 16 | 275 | 4.8 | 12.9 | 0.00 | 0.00 | 0.00 | 33 | 1016.7 |
| 20260502013854 | 16 | 336 | 4.8 | 12.9 | 0.00 | 0.00 | 0.00 | 32 | 1016.6 |
| 20260502013352 | 16 | 299 | 4.8 | 12.9 | 0.00 | 0.00 | 0.00 | 31 | 1016.5 |
| 20260502012852 | 16 | 332 | 4.8 | 8.0 | 0.00 | 0.00 | 0.00 | 31 | 1016.6 |
| 20260502012355 | 16 | 5 | 4.8 | 12.9 | 0.00 | 0.00 | 0.00 | 31 | 1016.6 |
| 20260502011855 | 16 | 0 | 4.8 | 12.9 | 0.00 | 0.00 | 0.00 | 31 | 1016.5 |
| 20260502011352 | 16 | 325 | 4.8 | 9.7 | 0.00 | 0.00 | 0.00 | 31 | 1016.5 |
| 20260502010853 | 17 | 324 | 3.2 | 9.7 | 0.00 | 0.00 | 0.00 | 31 | 1016.5 |
| 20260502010356 | 17 | 291 | 4.8 | 14.5 | 0.00 | 0.00 | 0.00 | 32 | 1016.5 |
| 20260502005849 | 17 | 288 | 3.2 | 14.5 | 0.00 | 0.00 | 0.00 | 31 | 1016.4 |
| 20260502005343 | 17 | 11 | 3.2 | 8.0 | 0.00 | 0.00 | 0.00 | 33 | 1016.5 |
| 20260502004836 | 17 | 340 | 3.2 | 8.0 | 0.00 | 0.00 | 0.00 | 31 | 1016.5 |
| 20260502004339 | 17 | 10 | 4.8 | 14.5 | 0.00 | 0.00 | 0.00 | 31 | 1016.5 |
| 20260502003839 | 17 | 355 | 6.4 | 14.5 | 0.00 | 0.00 | 0.00 | 31 | 1016.5 |
| 20260502003334 | 17 | 355 | 4.8 | 14.5 | 0.00 | 0.00 | 0.00 | 31 | 1016.5 |
| 20260502002833 | 17 | 19 | 4.8 | 14.5 | 0.00 | 0.00 | 0.00 | 31 | 1016.4 |
| 20260502002727 | 17 | 333 | 4.8 | 8.0 | 0.00 | 0.00 | 0.00 | 31 | 1016.4 |
| 20260502001833 | 17 | 328 | 4.8 | 12.9 | 0.00 | 0.00 | 0.00 | 30 | 1016.5 |
| 20260502001329 | 18 | 316 | 4.8 | 12.9 | 0.00 | 0.00 | 0.00 | 31 | 1016.5 |
| 20260502000833 | 18 | 343 | 4.8 | 11.3 | 0.00 | 0.00 | 0.00 | 29 | 1016.6 |
| 20260502000334 | 18 | 337 | 4.8 | 11.3 | 0.00 | 0.00 | 0.00 | 32 | 1016.5 |
| 20260502000306 | 18 | 333 | 4.8 | 9.7 | 0.00 | 0.00 | 0.00 | 30 | 1016.6 |
| 20260501235331 | 18 | 336 | 4.8 | 12.9 | 0.00 | 0.00 | 0.00 | 30 | 1016.6 |
| 20260501234829 | 18 | 335 | 4.8 | 14.5 | 0.00 | 0.00 | 0.00 | 29 | 1016.6 |
| 20260501234821 | 18 | 326 | 4.8 | 14.5 | 0.00 | 0.00 | 0.00 | 31 | 1016.6 |
| 20260501234339 | 18 | 355 | 4.8 | 14.5 | 0.00 | 0.00 | 0.00 | 30 | 1016.6 |
| 20260501233333 | 18 | 5 | 4.8 | 14.5 | 0.00 | 0.00 | 0.00 | 32 | 1016.5 |
| 20260501232833 | 18 | 21 | 6.4 | 14.5 | 0.00 | 0.00 | 0.00 | 30 | 1016.6 |
| 20260501232328 | 18 | 16 | 6.4 | 14.5 | 0.00 | 0.00 | 0.00 | 30 | 1016.6 |
| 20260501231822 | 18 | 298 | 4.8 | 14.5 | 0.00 | 0.00 | 0.00 | 33 | 1016.5 |
| 20260501231734 | 18 | 271 | 4.8 | 14.5 | 0.00 | 0.00 | 0.00 | 31 | 1016.6 |
| 20260501230812 | 18 | 355 | 4.8 | 16.1 | 0.00 | 0.00 | 0.00 | 29 | 1016.6 |
| 20260501230311 | 18 | 5 | 4.8 | 16.1 | 0.00 | 0.00 | 0.00 | 28 | 1016.6 |
| 20260501225810 | 18 | 351 | 4.8 | 14.5 | 0.00 | 0.00 | 0.00 | 32 | 1016.7 |
| 20260501225334 | 18 | 306 | 4.8 | 12.9 | 0.00 | 0.00 | 0.00 | 31 | 1016.9 |
| 20260501225311 | 18 | 43 | 3.2 | 14.5 | 0.00 | 0.00 | 0.00 | 28 | 1016.7 |
| 20260501225010 | 18 | 313 | 3.2 | 9.7 | 0.00 | 0.00 | 0.00 | 28 | 1016.9 |
| 20260501223810 | 18 | 344 | 4.8 | 14.5 | 0.00 | 0.00 | 0.00 | 29 | 1016.9 |
| 20260501223310 | 19 | 332 | 4.8 | 14.5 | 0.00 | 0.00 | 0.00 | 29 | 1017.0 |
| 20260501222813 | 19 | 296 | 4.8 | 14.5 | 0.00 | 0.00 | 0.00 | 29 | 1017.0 |
| 20260501222309 | 19 | 331 | 4.8 | 9.7 | 0.00 | 0.00 | 0.00 | 31 | 1017.1 |
| 20260501221807 | 20 | 333 | 3.2 | 11.3 | 0.00 | 0.00 | 0.00 | 29 | 1017.0 |
| 20260501221304 | 20 | 5 | 3.2 | 11.3 | 0.00 | 0.00 | 0.00 | 32 | 1017.1 |
| 20260501220805 | 20 | 297 | 4.8 | 14.5 | 0.00 | 0.00 | 0.00 | 30 | 1017.1 |
| 20260501220304 | 20 | 298 | 3.2 | 14.5 | 0.00 | 0.00 | 0.00 | 32 | 1017.1 |
| 20260501215804 | 20 | 16 | 3.2 | 9.7 | 0.00 | 0.00 | 0.00 | 30 | 1017.1 |
| 20260501215305 | 20 | 324 | 3.2 | 9.7 | 0.00 | 0.00 | 0.00 | 31 | 1017.2 |
| 20260501214802 | 20 | 304 | 4.8 | 16.1 | 0.00 | 0.00 | 0.00 | 31 | 1017.3 |
| 20260501214305 | 20 | 355 | 4.8 | 16.1 | 0.00 | 0.00 | 0.00 | 30 | 1017.3 |
| 20260501213805 | 20 | 317 | 4.8 | 12.9 | 0.00 | 0.00 | 0.00 | 30 | 1017.3 |
| 20260501213300 | 20 | 348 | 3.2 | 9.7 | 0.00 | 0.00 | 0.00 | 31 | 1017.3 |
| 20260501212754 | 20 | 348 | 4.8 | 14.5 | 0.00 | 0.00 | 0.00 | 31 | 1017.3 |
| 20260501212247 | 20 | 0 | 4.8 | 14.5 | 0.00 | 0.00 | 0.00 | 27 | 1017.4 |
| 20260501212146 | 20 | 9 | 4.8 | 14.5 | 0.00 | 0.00 | 0.00 | 29 | 1017.4 |
| 20260501211232 | 20 | 294 | 3.2 | 9.7 | 0.00 | 0.00 | 0.00 | 31 | 1017.4 |
| 20260501211043 | 20 | 288 | 3.2 | 11.3 | 0.00 | 0.00 | 0.00 | 33 | 1017.5 |
| 20260501210901 | 20 | 36 | 3.2 | 9.7 | 0.00 | 0.00 | 0.00 | 29 | 1017.5 |
| 20260501205733 | 20 | 292 | 4.8 | 12.9 | 0.00 | 0.00 | 0.00 | 31 | 1017.5 |
| 20260501205230 | 20 | 355 | 3.2 | 12.9 | 0.00 | 0.00 | 0.00 | 30 | 1017.4 |
| 20260501204730 | 20 | 313 | 4.8 | 14.5 | 0.00 | 0.00 | 0.00 | 32 | 1017.4 |
| 20260501204233 | 20 | 311 | 4.8 | 14.5 | 0.00 | 0.00 | 0.00 | 31 | 1017.4 |
| 20260501204126 | 20 | 308 | 3.2 | 9.7 | 0.00 | 0.00 | 0.00 | 33 | 1017.5 |
| 20260501203233 | 20 | 14 | 4.8 | 14.5 | 0.00 | 0.00 | 0.00 | 28 | 1017.5 |
| 20260501202731 | 20 | 332 | 3.2 | 14.5 | 0.00 | 0.00 | 0.00 | 31 | 1017.5 |
| 20260501202231 | 20 | 244 | 3.2 | 14.5 | 0.00 | 0.00 | 0.00 | 29 | 1017.5 |
| 20260501201732 | 19 | 136 | 4.8 | 14.5 | 0.00 | 0.00 | 0.00 | 30 | 1017.5 |
| 20260501201639 | 20 | 309 | 4.8 | 12.9 | 0.00 | 0.00 | 0.00 | 35 | 1017.5 |
| 20260501200729 | 20 | 350 | 4.8 | 12.9 | 0.00 | 0.00 | 0.00 | 32 | 1017.5 |
| 20260501200230 | 20 | 98 | 6.4 | 14.5 | 0.00 | 0.00 | 0.00 | 29 | 1017.7 |
| 20260501200139 | 21 | 283 | 4.8 | 14.5 | 0.00 | 0.00 | 0.00 | 36 | 1017.7 |
| 20260501195709 | 20 | 317 | 3.2 | 11.3 | 0.00 | 0.00 | 0.00 | 30 | 1017.8 |
| 20260501195102 | 20 | 302 | 3.2 | 12.9 | 0.00 | 0.00 | 0.00 | 32 | 1017.8 |
| 20260501194913 | 20 | 249 | 4.8 | 12.9 | 0.00 | 0.00 | 0.00 | 33 | 1017.8 |
| 20260501193721 | 20 | 284 | 3.2 | 11.3 | 0.00 | 0.00 | 0.00 | 38 | 1017.9 |
| 20260501193222 | 20 | 304 | 3.2 | 11.3 | 0.00 | 0.00 | 0.00 | 31 | 1017.9 |
| 20260501192721 | 20 | 349 | 3.2 | 8.0 | 0.00 | 0.00 | 0.00 | 32 | 1017.9 |
| 20260501192222 | 20 | 154 | 4.8 | 11.3 | 0.00 | 0.00 | 0.00 | 29 | 1018.0 |
| 20260501192136 | 20 | 273 | 3.2 | 11.3 | 0.00 | 0.00 | 0.00 | 34 | 1018.1 |
| 20260501191221 | 20 | 306 | 3.2 | 9.7 | 0.00 | 0.00 | 0.00 | 30 | 1018.1 |
| 20260501191118 | 20 | 326 | 4.8 | 16.1 | 0.00 | 0.00 | 0.00 | 28 | 1018.1 |
| 20260501190220 | 20 | 76 | 4.8 | 16.1 | 0.00 | 0.00 | 0.00 | 33 | 1018.2 |
| 20260501190047 | 20 | 249 | 4.8 | 12.9 | 0.00 | 0.00 | 0.00 | 39 | 1018.2 |
| 20260501185901 | 20 | 80 | 4.8 | 14.5 | 0.00 | 0.00 | 0.00 | 25 | 1018.2 |
| 20260501184722 | 20 | 325 | 4.8 | 12.9 | 0.00 | 0.00 | 0.00 | 31 | 1018.4 |
| 20260501184221 | 20 | 301 | 4.8 | 14.5 | 0.00 | 0.00 | 0.00 | 27 | 1018.5 |
| 20260501183724 | 20 | 229 | 4.8 | 14.5 | 0.00 | 0.00 | 0.00 | 29 | 1018.5 |
| 20260501183546 | 20 | 58 | 3.2 | 11.3 | 0.00 | 0.00 | 0.00 | 33 | 1018.6 |
| 20260501183406 | 20 | 107 | 3.2 | 11.3 | 0.00 | 0.00 | 0.00 | 27 | 1018.5 |
| 20260501182222 | 20 | 5 | 3.2 | 11.3 | 0.00 | 0.00 | 0.00 | 32 | 1018.6 |
| 20260501182131 | 20 | 304 | 4.8 | 11.3 | 0.00 | 0.00 | 0.00 | 34 | 1018.7 |
| 20260501181223 | 20 | 246 | 3.2 | 9.7 | 0.00 | 0.00 | 0.00 | 35 | 1018.7 |
| 20260501180720 | 20 | 267 | 4.8 | 9.7 | 0.00 | 0.00 | 0.00 | 34 | 1018.7 |
| 20260501180220 | 20 | 268 | 4.8 | 11.3 | 0.00 | 0.00 | 0.00 | 36 | 1018.7 |
| 20260501175738 | 19 | 128 | 4.8 | 11.3 | 0.00 | 0.00 | 0.00 | 27 | 1018.9 |
| 20260501175733 | 19 | 271 | 4.8 | 11.3 | 0.00 | 0.00 | 0.00 | 28 | 1018.7 |
| 20260501174720 | 19 | 145 | 3.2 | 11.3 | 0.00 | 0.00 | 0.00 | 30 | 1018.9 |
| 20260501174220 | 18 | 47 | 3.2 | 11.3 | 0.00 | 0.00 | 0.00 | 38 | 1018.9 |
| 20260501173720 | 18 | 27 | 3.2 | 6.4 | 0.00 | 0.00 | 0.00 | 34 | 1018.9 |
| 20260501173220 | 18 | 302 | 3.2 | 8.0 | 0.00 | 0.00 | 0.00 | 36 | 1019.0 |
| 20260501172720 | 18 | 297 | 1.6 | 9.7 | 0.00 | 0.00 | 0.00 | 35 | 1019.0 |
| 20260501172219 | 18 | 251 | 3.2 | 9.7 | 0.00 | 0.00 | 0.00 | 34 | 1019.0 |
| 20260501171720 | 18 | 259 | 3.2 | 9.7 | 0.00 | 0.00 | 0.00 | 39 | 1019.0 |
| 20260501171219 | 17 | 184 | 1.6 | 6.4 | 0.00 | 0.00 | 0.00 | 36 | 1019.0 |
| 20260501170738 | 17 | 295 | 1.6 | 6.4 | 0.00 | 0.00 | 0.00 | 34 | 1019.2 |
| 20260501170237 | 17 | 283 | 1.6 | 4.8 | 0.00 | 0.00 | 0.00 | 39 | 1019.2 |
| 20260501165735 | 16 | 287 | 1.6 | 4.8 | 0.00 | 0.00 | 0.00 | 37 | 1019.2 |
| 20260501165234 | 17 | 287 | 3.2 | 9.7 | 0.00 | 0.00 | 0.00 | 37 | 1019.0 |
| 20260501165203 | 16 | 205 | 3.2 | 9.7 | 0.00 | 0.00 | 0.00 | 38 | 1019.2 |
| 20260501164230 | 15 | 265 | 3.2 | 6.4 | 0.00 | 0.00 | 0.00 | 36 | 1019.0 |
| 20260501163726 | 15 | 265 | 3.2 | 6.4 | 0.00 | 0.00 | 0.00 | 39 | 1019.0 |
| 20260501163226 | 14 | 279 | 4.8 | 11.3 | 0.00 | 0.00 | 0.00 | 40 | 1019.2 |
| 20260501162730 | 13 | 254 | 4.8 | 11.3 | 0.00 | 0.00 | 0.00 | 40 | 1019.0 |
| 20260501162223 | 13 | 259 | 4.8 | 12.9 | 0.00 | 0.00 | 0.00 | 47 | 1019.2 |
| 20260501161721 | 12 | 257 | 3.2 | 12.9 | 0.00 | 0.00 | 0.00 | 43 | 1019.0 |
| 20260501161220 | 12 | 261 | 1.6 | 8.0 | 0.00 | 0.00 | 0.00 | 46 | 1019.0 |
| 20260501161048 | 12 | 294 | 3.2 | 9.7 | 0.00 | 0.00 | 0.00 | 47 | 1019.0 |
| 20260501160910 | 12 | 294 | 1.6 | 6.4 | 0.00 | 0.00 | 0.00 | 46 | 1019.0 |
| 20260501155722 | 11 | 294 | 3.2 | 9.7 | 0.00 | 0.00 | 0.00 | 47 | 1019.0 |
| 20260501155212 | 11 | 255 | 1.6 | 6.4 | 0.00 | 0.00 | 0.00 | 47 | 1019.0 |
| 20260501154711 | 11 | 240 | 1.6 | 4.8 | 0.00 | 0.00 | 0.00 | 50 | 1019.0 |
| 20260501154210 | 10 | 240 | 1.6 | 4.8 | 0.00 | 0.00 | 0.00 | 51 | 1018.9 |
| 20260501153707 | 10 | 240 | 1.6 | 6.4 | 0.00 | 0.00 | 0.00 | 52 | 1018.9 |
| 20260501153215 | 9 | 240 | 1.6 | 6.4 | 0.00 | 0.00 | 0.00 | 50 | 1018.9 |
| 20260501152709 | 8 | 240 | 1.6 | 6.4 | 0.00 | 0.00 | 0.00 | 50 | 1018.9 |
| 20260501152203 | 8 | 240 | 1.6 | 4.8 | 0.00 | 0.00 | 0.00 | 52 | 1018.9 |
| 20260501151709 | 8 | 240 | 3.2 | 8.0 | 0.00 | 0.00 | 0.00 | 53 | 1018.9 |
| 20260501151202 | 8 | 240 | 1.6 | 8.0 | 0.00 | 0.00 | 0.00 | 54 | 1018.9 |
| 20260501150701 | 7 | 204 | 1.6 | 6.4 | 0.00 | 0.00 | 0.00 | 54 | 1018.9 |